Regional Weather Roundup
Issued by NWS

Home | Current Version | Previous Version | Text Only | Print | Product List | Glossary Off
Versions: 1 2 3 4 5 6 7 8 9 10 11 12 13 14 15 16 17 18 19 20 21 22 23 24 25 26 27 28 29 30 31 32 33 34 35 36 37 38 39 40 41 42 43 44 45 46 47 48 49 50

153
ASUS45 KABQ 201401
RWRNM
NEW MEXICO REGIONAL WEATHER ROUNDUP
NATIONAL WEATHER SERVICE ALBUQUERQUE NM
700 AM MST SAT JAN 20 2018

NOTE: "FAIR" MEANS FEW OR NO CLOUDS BELOW 12,000 FEET AGL WITH NO
       SIGNIFICANT WEATHER OR OBSTRUCTIONS TO VISION.

      THIS PRODUCT IS RELEASED AS TWO VERSIONS.  ONE VERSION NEAR
      THE TOP OF THE HOUR CONTAINING PRELIMINARY DATA FROM ALBUQUERQUE
      AND OTHER STATIONS.  A FINAL VERSION WITH ADDITIONAL DATA IS
      ISSUED ABOUT 10 MINUTES AFTER THE HOUR.

NMZ501-503-504-510>518-201500-
NORTHWEST PLATEAU/NORTHCENTRAL MOUNTAINS

CITY           SKY/WX    TMP DP  RH WIND       PRES   REMARKS
FARMINGTON     MOCLDY    27  17  66 E7        29.92S WCI  19
LOS ALAMOS     FAIR      33  12  42 CALM      30.01R
SANTA FE       FAIR      26  13  57 CALM      29.98S
TAOS           FAIR      18  10  71 CALM      30.03S
ANGEL FIRE     FAIR      18  11  76 S8        30.02S WCI   7

$$
NMZ402-403-502-505>509-201500-
WESTCENTRAL MOUNTAINS/SOUTHWEST MOUNTAINS

CITY           SKY/WX    TMP DP  RH WIND       PRES   REMARKS
GALLUP         FAIR      24  11  57 NE5       29.95S WCI  18
GRANTS         FAIR      25  10  52 S6        29.99F WCI  18
SILVER CITY    FAIR      25  13  61 N3        30.01S

$$
NMZ407-409-411-412-201500-
SOUTHERN DESERTS

CITY           SKY/WX    TMP DP  RH WIND       PRES   REMARKS
DEMING         FAIR      26  11  52 CALM      30.00R
LAS CRUCES       N/A    N/A N/A N/A CALM      30.00S
HOLLOMAN AFB   FAIR      22   6  49 E7        30.01S WCI  14
ALAMOGORDO     FAIR      27   9  46 CALM      30.00S
T OR C         FAIR      30   8  39 NW6       29.97S WCI  24

$$
NMZ519>523-201500-
CENTRAL VALLEYS/CENTRAL HIGHLANDS

CITY           SKY/WX    TMP DP  RH WIND       PRES   REMARKS
ALBUQUERQUE    FAIR      31  14  49 CALM      29.99S
DOUBLE EAGLE   CLEAR     19   7  58 CALM      29.99S
MORIARTY ARPT  FAIR      13   3  63 CALM      30.01R
CLINES CORNERS FAIR      34  10  37 W17       29.98S WCI  23
BELEN          FAIR      22   9  55 CALM      29.99S
SOCORRO        FAIR      26  11  54 CALM      29.98S

$$
NMZ524>526-539-540-201500-
SOUTHCENTRAL MOUNTAINS

CITY           SKY/WX    TMP DP  RH WIND       PRES   REMARKS
RUIDOSO        NOT AVBL

$$
NMZ527>531-201500-
NORTHEAST HIGHLANDS/NORTHEAST PLAINS

CITY           SKY/WX    TMP DP  RH WIND       PRES   REMARKS
LAS VEGAS      FAIR      43  16  33 CALM      29.92F
RATON          FAIR      23  14  68 NE8       29.88F WCI  14
CLAYTON        FAIR      47  17  30 W17       29.80R

$$
NMZ532>537-201500-
EASTCENTRAL PLAINS

CITY           SKY/WX    TMP DP  RH WIND       PRES   REMARKS
TUCUMCARI      FAIR      45  15  30 W14       29.82S
CANNON AFB     FAIR      40  14  33 NW14      29.88R WCI  33
CLOVIS AIRPORT FAIR      40  15  36 W14       29.87R WCI  32

$$
NMZ028-029-538-201500-
SOUTHEAST PLAINS

CITY           SKY/WX    TMP DP  RH WIND       PRES   REMARKS
ROSWELL        FAIR      29  12  49 NW6       29.89R WCI  23
ARTESIA        FAIR      30   9  40 CALM      29.91R
CARLSBAD       FAIR      28  14  55 W7        29.90R WCI  21
HOBBS          CLEAR     28  10  47 S8        29.90R WCI  20


$$




USA.gov is the U.S. government's official web portal to all federal, state and local government web resources and services.